Time,TemperatureF,DewpointF,PressureIn,WindDirection,WindDirectionDegrees,WindSpeedMPH,WindSpeedGustMPH,Humidity,HourlyPrecipIn,Conditions,Clouds,dailyrainin,SoftwareType,DateUTC
2013-07-01 00:01:00,73.3,73.3,29.95,SW,236,0.0,40.1,100,16.17,,,0.00,VWS V13.01,2013-07-01 04:01:00,
2013-07-01 00:06:00,73.0,73.0,29.95,South,181,1.6,40.1,100,16.17,,,0.00,VWS V13.01,2013-07-01 04:06:00,
2013-07-01 00:11:00,73.1,73.1,29.95,SE,125,0.0,40.1,100,16.17,,,0.00,VWS V13.01,2013-07-01 04:11:00,
2013-07-01 00:16:00,72.7,72.7,29.95,SE,125,0.0,40.1,100,16.17,,,0.00,VWS V13.01,2013-07-01 04:16:00,
2013-07-01 00:21:00,72.8,72.8,29.95,SE,125,0.0,40.1,100,16.17,,,0.00,VWS V13.01,2013-07-01 04:21:00,
2013-07-01 00:26:00,72.5,72.5,29.95,SE,125,0.0,40.1,100,16.17,,,0.00,VWS V13.01,2013-07-01 04:26:00,
2013-07-01 00:31:00,72.4,72.4,29.95,SE,125,0.0,40.1,100,16.17,,,0.00,VWS V13.01,2013-07-01 04:31:00,
2013-07-01 00:36:00,72.5,72.5,29.95,SE,125,0.0,40.1,100,16.17,,,0.00,VWS V13.01,2013-07-01 04:36:00,
2013-07-01 00:41:00,72.3,72.3,29.95,SE,125,0.0,40.1,100,16.17,,,0.00,VWS V13.01,2013-07-01 04:41:00,
2013-07-01 00:46:00,72.5,72.5,29.95,SE,125,0.0,40.1,100,16.17,,,0.00,VWS V13.01,2013-07-01 04:46:00,
2013-07-01 00:51:00,72.1,72.1,29.95,SE,125,0.0,40.1,100,16.17,,,0.00,VWS V13.01,2013-07-01 04:51:00,
2013-07-01 00:56:00,72.4,72.4,29.95,SE,125,0.0,40.1,100,16.17,,,0.00,VWS V13.01,2013-07-01 04:56:00,
2013-07-01 01:00:00,72.3,72.3,30.09,SSW,202,0.0,40.1,100,16.97,,,0.00,VWS V13.01,2013-07-01 05:00:00,
2013-07-01 01:01:00,72.1,72.1,29.95,SE,125,0.0,40.1,100,16.17,,,0.00,VWS V13.01,2013-07-01 05:01:00,
2013-07-01 01:06:00,71.9,71.9,29.95,SE,125,0.0,40.1,100,16.17,,,0.00,VWS V13.01,2013-07-01 05:06:00,
2013-07-01 01:11:00,72.0,72.0,29.95,SE,125,0.0,40.1,100,16.17,,,0.00,VWS V13.01,2013-07-01 05:11:00,
2013-07-01 01:16:00,72.0,72.0,29.95,SE,125,0.0,40.1,100,16.17,,,0.00,VWS V13.01,2013-07-01 05:16:00,
2013-07-01 01:21:00,72.1,72.1,29.95,SE,125,0.0,40.1,100,16.17,,,0.00,VWS V13.01,2013-07-01 05:21:00,
2013-07-01 01:26:00,72.2,72.2,29.95,SE,125,0.0,40.1,100,16.17,,,0.00,VWS V13.01,2013-07-01 05:26:00,
2013-07-01 01:31:00,72.3,72.3,29.95,SE,125,0.0,40.1,100,16.17,,,0.00,VWS V13.01,2013-07-01 05:31:00,
2013-07-01 01:36:00,72.2,72.2,29.95,SE,125,0.0,40.1,100,16.17,,,0.00,VWS V13.01,2013-07-01 05:36:00,
2013-07-01 01:41:00,71.9,71.9,29.95,SE,125,0.0,40.1,100,16.17,,,0.00,VWS V13.01,2013-07-01 05:41:00,
2013-07-01 01:46:00,71.7,71.7,29.96,SE,125,0.0,40.1,100,16.17,,,0.00,VWS V13.01,2013-07-01 05:46:00,
2013-07-01 01:51:00,71.9,71.9,29.96,SE,125,0.0,40.1,100,16.17,,,0.00,VWS V13.01,2013-07-01 05:51:00,
2013-07-01 01:56:00,71.7,71.7,29.96,SE,125,0.0,40.1,100,16.17,,,0.00,VWS V13.01,2013-07-01 05:56:00,
2013-07-01 02:01:00,71.8,71.8,29.95,SE,125,0.0,40.1,100,16.17,,,0.00,VWS V13.01,2013-07-01 06:01:00,
2013-07-01 02:06:00,71.9,71.9,29.95,SE,125,0.0,40.1,100,16.17,,,0.00,VWS V13.01,2013-07-01 06:06:00,
2013-07-01 02:11:00,71.7,71.7,29.95,SE,125,0.0,40.1,100,16.17,,,0.00,VWS V13.01,2013-07-01 06:11:00,
2013-07-01 02:16:00,71.6,71.6,29.95,SE,125,0.0,40.1,100,16.17,,,0.00,VWS V13.01,2013-07-01 06:16:00,
2013-07-01 02:21:00,71.5,71.5,29.95,SE,125,0.0,40.1,100,16.17,,,0.00,VWS V13.01,2013-07-01 06:21:00,
2013-07-01 02:26:00,71.6,71.6,29.95,SE,125,0.0,40.1,100,16.17,,,0.00,VWS V13.01,2013-07-01 06:26:00,
2013-07-01 02:31:00,71.7,71.7,29.95,SE,125,0.0,40.1,100,16.17,,,0.00,VWS V13.01,2013-07-01 06:31:00,
2013-07-01 02:36:00,71.5,71.5,29.95,SE,125,0.0,40.1,100,16.17,,,0.00,VWS V13.01,2013-07-01 06:36:00,
2013-07-01 02:41:00,71.5,71.5,29.95,SE,125,0.0,40.1,100,16.17,,,0.00,VWS V13.01,2013-07-01 06:41:00,
2013-07-01 02:46:00,71.5,71.5,29.95,SE,125,0.0,40.1,100,16.17,,,0.00,VWS V13.01,2013-07-01 06:46:00,
2013-07-01 02:50:00,71.4,71.4,29.95,SE,125,0.0,40.1,100,16.17,,,0.00,VWS V13.01,2013-07-01 06:50:00,
2013-07-01 02:55:00,71.5,71.5,29.95,SE,125,0.0,40.1,100,16.17,,,0.00,VWS V13.01,2013-07-01 06:55:00,
2013-07-01 03:00:00,71.3,71.3,29.95,SE,125,0.0,40.1,100,16.17,,,0.00,VWS V13.01,2013-07-01 07:00:00,
2013-07-01 03:05:00,71.2,71.2,29.95,SE,125,0.0,40.1,100,16.17,,,0.00,VWS V13.01,2013-07-01 07:05:00,
2013-07-01 03:10:00,71.5,71.5,29.95,SE,125,0.0,40.1,100,16.17,,,0.00,VWS V13.01,2013-07-01 07:10:00,
2013-07-01 03:15:00,71.5,71.5,29.95,SE,125,0.0,40.1,100,16.17,,,0.00,VWS V13.01,2013-07-01 07:15:00,
2013-07-01 03:20:00,71.3,71.3,29.95,SE,125,0.0,40.1,100,16.17,,,0.00,VWS V13.01,2013-07-01 07:20:00,
2013-07-01 03:25:00,71.7,71.7,29.95,SE,125,0.0,40.1,100,16.17,,,0.00,VWS V13.01,2013-07-01 07:25:00,
2013-07-01 03:30:00,71.5,71.5,29.95,SE,125,0.0,40.1,100,16.17,,,0.00,VWS V13.01,2013-07-01 07:30:00,
2013-07-01 03:35:00,71.5,71.5,29.94,SE,125,0.0,40.1,100,16.17,,,0.00,VWS V13.01,2013-07-01 07:35:00,
2013-07-01 03:40:00,71.7,71.7,29.94,SE,125,0.0,40.1,100,16.17,,,0.00,VWS V13.01,2013-07-01 07:40:00,
2013-07-01 03:45:00,71.6,71.6,29.94,SE,125,0.0,40.1,100,16.17,,,0.00,VWS V13.01,2013-07-01 07:45:00,
2013-07-01 03:50:00,72.0,72.0,29.94,SE,125,0.0,40.1,100,16.17,,,0.00,VWS V13.01,2013-07-01 07:50:00,
2013-07-01 03:55:00,72.0,72.0,29.94,SE,125,0.0,40.1,100,16.17,,,0.00,VWS V13.01,2013-07-01 07:55:00,
2013-07-01 04:00:00,71.9,71.9,29.94,SE,125,0.0,40.1,100,16.17,,,0.00,VWS V13.01,2013-07-01 08:00:00,
2013-07-01 04:05:00,71.7,71.7,29.94,SE,125,0.0,40.1,100,16.17,,,0.00,VWS V13.01,2013-07-01 08:05:00,
2013-07-01 04:10:00,71.7,71.7,29.94,SE,125,0.0,40.1,100,16.17,,,0.00,VWS V13.01,2013-07-01 08:10:00,
2013-07-01 04:15:00,71.8,71.8,29.94,SE,125,0.0,40.1,100,16.17,,,0.00,VWS V13.01,2013-07-01 08:15:00,
2013-07-01 04:20:00,71.7,71.7,29.94,SE,125,0.0,40.1,100,16.17,,,0.00,VWS V13.01,2013-07-01 08:20:00,
2013-07-01 04:25:00,71.8,71.8,29.94,SE,125,0.0,40.1,100,16.17,,,0.00,VWS V13.01,2013-07-01 08:25:00,
2013-07-01 04:30:00,71.9,71.9,29.95,SE,125,0.0,40.1,100,16.17,,,0.00,VWS V13.01,2013-07-01 08:30:00,
2013-07-01 04:35:00,72.0,72.0,29.95,SE,125,0.0,40.1,100,16.17,,,0.00,VWS V13.01,2013-07-01 08:35:00,
2013-07-01 04:40:00,72.0,72.0,29.95,SE,125,0.0,40.1,100,16.17,,,0.00,VWS V13.01,2013-07-01 08:40:00,
2013-07-01 04:45:00,71.8,71.8,29.95,SE,125,0.0,40.1,100,16.17,,,0.00,VWS V13.01,2013-07-01 08:45:00,
2013-07-01 04:50:00,72.1,72.1,29.95,SE,125,0.0,40.1,100,16.17,,,0.00,VWS V13.01,2013-07-01 08:50:00,
2013-07-01 04:55:00,71.9,71.9,29.95,SE,125,0.0,40.1,100,16.17,,,0.00,VWS V13.01,2013-07-01 08:55:00,
2013-07-01 05:00:00,71.7,71.7,29.95,SE,125,0.0,40.1,100,16.17,,,0.00,VWS V13.01,2013-07-01 09:00:00,
2013-07-01 05:05:00,71.9,71.9,29.95,SE,125,0.0,40.1,100,16.17,,,0.00,VWS V13.01,2013-07-01 09:05:00,
2013-07-01 05:10:00,72.1,72.1,29.95,SE,125,0.0,40.1,100,16.17,,,0.00,VWS V13.01,2013-07-01 09:10:00,
2013-07-01 05:15:00,72.0,72.0,29.96,SE,125,0.0,40.1,100,16.17,,,0.00,VWS V13.01,2013-07-01 09:15:00,
2013-07-01 05:20:00,71.9,71.9,29.96,SE,125,0.0,40.1,100,16.17,,,0.00,VWS V13.01,2013-07-01 09:20:00,
2013-07-01 05:25:00,72.0,72.0,29.96,SE,125,0.0,40.1,100,16.17,,,0.00,VWS V13.01,2013-07-01 09:25:00,
2013-07-01 06:30:00,72.5,72.5,29.98,East,93,0.0,40.1,100,16.17,,,0.00,VWS V13.01,2013-07-01 10:30:00,
2013-07-01 06:35:00,72.6,72.6,29.98,East,93,0.0,40.1,100,16.17,,,0.00,VWS V13.01,2013-07-01 10:35:00,
2013-07-01 06:40:00,72.7,72.7,29.98,East,93,0.0,40.1,100,16.17,,,0.00,VWS V13.01,2013-07-01 10:40:00,
2013-07-01 06:45:00,72.8,72.8,29.98,East,93,0.0,40.1,100,16.17,,,0.00,VWS V13.01,2013-07-01 10:45:00,
2013-07-01 06:50:00,72.8,72.8,29.98,East,93,0.0,40.1,100,16.17,,,0.00,VWS V13.01,2013-07-01 10:50:00,
2013-07-01 06:55:00,72.9,72.9,29.98,East,93,0.0,40.1,100,16.17,,,0.00,VWS V13.01,2013-07-01 10:55:00,
2013-07-01 07:00:00,73.1,73.1,29.98,East,93,0.0,40.1,100,16.17,,,0.00,VWS V13.01,2013-07-01 11:00:00,
2013-07-01 07:05:00,73.5,73.5,29.98,East,93,0.0,40.1,100,16.17,,,0.00,VWS V13.01,2013-07-01 11:05:00,
2013-07-01 07:10:00,73.7,73.7,29.98,East,93,0.0,40.1,100,16.17,,,0.00,VWS V13.01,2013-07-01 11:10:00,
2013-07-01 07:15:00,74.2,74.2,29.98,East,93,0.0,40.1,100,16.17,,,0.00,VWS V13.01,2013-07-01 11:15:00,
2013-07-01 07:20:00,74.2,74.2,29.98,East,93,0.0,40.1,100,16.17,,,0.00,VWS V13.01,2013-07-01 11:20:00,
2013-07-01 07:25:00,74.5,74.5,29.98,East,93,0.0,40.1,100,16.17,,,0.00,VWS V13.01,2013-07-01 11:25:00,
2013-07-01 07:30:00,75.1,75.1,29.98,SSW,197,0.0,40.1,100,16.17,,,0.00,VWS V13.01,2013-07-01 11:30:00,
2013-07-01 07:35:00,75.0,75.0,29.98,SSW,197,0.0,40.1,100,16.17,,,0.00,VWS V13.01,2013-07-01 11:35:00,
2013-07-01 07:40:00,75.5,75.5,29.98,South,180,1.2,40.1,100,16.17,,,0.00,VWS V13.01,2013-07-01 11:40:00,
2013-07-01 07:45:00,75.7,75.7,29.98,SW,217,3.7,40.1,100,16.17,,,0.00,VWS V13.01,2013-07-01 11:45:00,
2013-07-01 07:50:00,75.8,75.8,29.98,ENE,60,0.0,40.1,100,16.17,,,0.00,VWS V13.01,2013-07-01 11:50:00,
2013-07-01 07:55:00,75.8,75.8,29.98,ESE,114,0.0,40.1,100,16.17,,,0.00,VWS V13.01,2013-07-01 11:55:00,
2013-07-01 08:00:00,76.0,76.0,29.98,South,179,0.0,40.1,100,16.17,,,0.00,VWS V13.01,2013-07-01 12:00:00,
2013-07-01 08:05:00,76.1,76.1,29.99,West,267,0.8,40.1,100,16.17,,,0.00,VWS V13.01,2013-07-01 12:05:00,
2013-07-01 08:10:00,76.2,76.2,29.99,SW,228,2.6,40.1,100,16.17,,,0.00,VWS V13.01,2013-07-01 12:10:00,
2013-07-01 08:15:00,76.5,76.5,29.99,WSW,250,0.0,40.1,100,16.17,,,0.00,VWS V13.01,2013-07-01 12:15:00,
2013-07-01 08:20:00,76.4,76.4,29.99,South,179,0.0,40.1,100,16.17,,,0.00,VWS V13.01,2013-07-01 12:20:00,
2013-07-01 08:25:00,76.3,76.3,29.99,WSW,248,3.2,40.1,100,16.17,,,0.00,VWS V13.01,2013-07-01 12:25:00,
2013-07-01 08:30:00,76.3,76.3,29.99,WSW,250,0.0,40.1,100,16.17,,,0.00,VWS V13.01,2013-07-01 12:30:00,
2013-07-01 08:35:00,76.2,76.2,30.00,SE,146,0.0,40.1,100,16.17,,,0.00,VWS V13.01,2013-07-01 12:35:00,
2013-07-01 08:40:00,76.3,76.3,29.99,ESE,105,0.0,40.1,100,16.17,,,0.00,VWS V13.01,2013-07-01 12:40:00,
2013-07-01 08:45:00,76.4,76.4,29.99,SW,225,1.0,40.1,100,16.17,,,0.00,VWS V13.01,2013-07-01 12:45:00,
2013-07-01 08:50:00,76.5,76.5,30.00,SW,222,0.0,40.1,100,16.17,,,0.00,VWS V13.01,2013-07-01 12:50:00,
2013-07-01 08:55:00,76.6,76.6,30.00,SW,222,0.0,40.1,100,16.17,,,0.00,VWS V13.01,2013-07-01 12:55:00,
2013-07-01 09:00:00,77.0,77.0,30.00,West,270,0.0,40.1,100,16.17,,,0.00,VWS V13.01,2013-07-01 13:00:00,
2013-07-01 09:05:00,77.5,77.4,30.00,SW,214,0.0,40.1,100,16.17,,,0.00,VWS V13.01,2013-07-01 13:05:00,
2013-07-01 09:10:00,77.9,77.6,30.00,West,267,0.0,40.1,99,16.17,,,0.00,VWS V13.01,2013-07-01 13:10:00,
2013-07-01 09:15:00,77.9,77.4,30.00,SSW,194,0.0,40.1,98,16.17,,,0.00,VWS V13.01,2013-07-01 13:15:00,
2013-07-01 09:20:00,78.0,77.5,30.00,WSW,243,0.0,40.1,98,16.17,,,0.00,VWS V13.01,2013-07-01 13:20:00,
2013-07-01 09:25:00,77.8,77.3,30.00,WSW,243,0.0,40.1,98,16.17,,,0.00,VWS V13.01,2013-07-01 13:25:00,
2013-07-01 09:30:00,77.4,76.8,30.00,WSW,243,0.0,40.1,98,16.17,,,0.00,VWS V13.01,2013-07-01 13:30:00,
2013-07-01 09:35:00,77.7,77.2,30.00,SW,218,2.6,40.1,98,16.17,,,0.00,VWS V13.01,2013-07-01 13:35:00,
2013-07-01 09:40:00,78.0,77.4,30.00,North,6,0.0,40.1,98,16.17,,,0.00,VWS V13.01,2013-07-01 13:40:00,
2013-07-01 09:45:00,79.0,78.4,29.99,SSE,163,0.9,40.1,98,16.17,,,0.00,VWS V13.01,2013-07-01 13:45:00,
2013-07-01 09:50:00,79.9,79.0,29.99,SSW,210,1.1,40.1,97,16.17,,,0.00,VWS V13.01,2013-07-01 13:50:00,
2013-07-01 09:55:00,80.4,79.3,29.99,SE,124,0.0,40.1,96,16.17,,,0.00,VWS V13.01,2013-07-01 13:55:00,
2013-07-01 10:00:00,80.9,79.7,30.00,West,259,0.0,40.1,96,16.17,,,0.00,VWS V13.01,2013-07-01 14:00:00,
2013-07-01 10:05:00,81.9,80.5,29.99,WSW,256,0.0,40.1,96,16.17,,,0.00,VWS V13.01,2013-07-01 14:05:00,
2013-07-01 10:10:00,82.6,81.0,30.00,West,277,3.0,40.1,95,16.17,,,0.00,VWS V13.01,2013-07-01 14:10:00,
2013-07-01 10:15:00,82.6,80.5,30.00,West,271,0.0,40.1,94,16.17,,,0.00,VWS V13.01,2013-07-01 14:15:00,
2013-07-01 10:20:00,82.7,80.5,30.00,SE,141,2.2,40.1,93,16.17,,,0.00,VWS V13.01,2013-07-01 14:20:00,
2013-07-01 10:25:00,82.5,80.1,30.00,East,80,0.9,40.1,92,16.17,,,0.00,VWS V13.01,2013-07-01 14:25:00,
2013-07-01 10:30:00,82.4,80.2,29.99,SE,146,0.0,40.1,93,16.17,,,0.00,VWS V13.01,2013-07-01 14:30:00,
2013-07-01 10:35:00,82.6,80.3,29.99,SE,131,1.4,40.1,93,16.17,,,0.00,VWS V13.01,2013-07-01 14:35:00,
2013-07-01 10:40:00,83.3,80.8,29.99,SSW,207,0.0,40.1,92,16.17,,,0.00,VWS V13.01,2013-07-01 14:40:00,
2013-07-01 10:45:00,83.4,80.5,30.00,SSW,207,1.4,40.1,91,16.17,,,0.00,VWS V13.01,2013-07-01 14:45:00,
2013-07-01 10:50:00,83.4,80.4,30.00,SW,226,2.9,40.1,91,16.17,,,0.00,VWS V13.01,2013-07-01 14:50:00,
2013-07-01 10:55:00,83.2,80.5,30.00,NE,34,0.0,40.1,92,16.17,,,0.00,VWS V13.01,2013-07-01 14:55:00,
2013-07-01 11:00:00,83.4,80.6,30.00,NE,41,1.0,40.1,91,16.17,,,0.00,VWS V13.01,2013-07-01 15:00:00,
2013-07-01 11:05:00,83.1,80.0,30.00,SSW,193,4.0,40.1,90,16.17,,,0.00,VWS V13.01,2013-07-01 15:05:00,
2013-07-01 11:10:00,83.0,80.4,30.00,SW,224,2.1,40.1,92,16.17,,,0.00,VWS V13.01,2013-07-01 15:10:00,
2013-07-01 11:15:00,82.9,80.5,30.00,SE,131,0.0,40.1,92,16.17,,,0.00,VWS V13.01,2013-07-01 15:15:00,
2013-07-01 11:20:00,83.0,80.1,30.00,SW,221,2.7,40.1,91,16.17,,,0.00,VWS V13.01,2013-07-01 15:20:00,
2013-07-01 11:25:00,82.6,79.9,30.00,WNW,294,1.3,40.1,92,16.17,,,0.00,VWS V13.01,2013-07-01 15:25:00,
2013-07-01 11:30:00,81.9,79.5,30.00,ESE,112,0.2,40.1,92,16.17,,,0.00,VWS V13.01,2013-07-01 15:30:00,
2013-07-01 11:35:00,81.1,79.2,30.00,WSW,243,0.0,40.1,94,16.17,,,0.00,VWS V13.01,2013-07-01 15:35:00,
2013-07-01 11:40:00,80.7,79.2,30.02,WNW,287,4.7,40.1,95,16.17,,,0.00,VWS V13.01,2013-07-01 15:40:00,
2013-07-01 11:44:00,81.0,79.2,30.02,North,8,0.0,40.1,94,16.17,,,0.00,VWS V13.01,2013-07-01 15:44:00,
2013-07-01 11:49:00,80.6,78.9,30.02,NW,304,3.0,40.1,94,16.17,,,0.00,VWS V13.01,2013-07-01 15:49:00,
2013-07-01 11:54:00,80.3,79.0,30.02,NE,38,3.6,40.1,96,16.18,,,0.01,VWS V13.01,2013-07-01 15:54:00,
2013-07-01 11:59:00,79.9,79.0,30.02,NNE,30,0.0,40.1,97,16.18,,,0.01,VWS V13.01,2013-07-01 15:59:00,
2013-07-01 12:04:00,79.7,79.1,30.02,South,173,1.8,40.1,98,16.37,,,0.21,VWS V13.01,2013-07-01 16:04:00,
2013-07-01 12:09:00,78.2,77.9,30.01,ENE,75,1.6,40.1,99,16.59,,,0.42,VWS V13.01,2013-07-01 16:09:00,
2013-07-01 12:14:00,77.5,77.5,30.02,ESE,107,0.0,40.1,100,16.61,,,0.44,VWS V13.01,2013-07-01 16:14:00,
2013-07-01 12:19:00,77.0,77.0,30.03,ESE,107,0.0,40.1,100,16.75,,,0.59,VWS V13.01,2013-07-01 16:19:00,
2013-07-01 12:24:00,76.4,76.4,30.02,SE,124,3.4,40.1,100,16.87,,,0.70,VWS V13.01,2013-07-01 16:24:00,
2013-07-01 12:29:00,75.7,75.7,30.02,ESE,111,4.6,40.1,100,16.88,,,0.71,VWS V13.01,2013-07-01 16:29:00,
2013-07-01 12:34:00,75.1,75.1,30.02,SE,139,3.5,40.1,100,16.89,,,0.72,VWS V13.01,2013-07-01 16:34:00,
2013-07-01 12:39:00,75.2,75.2,30.02,SE,142,4.0,40.1,100,16.89,,,0.72,VWS V13.01,2013-07-01 16:39:00,
2013-07-01 12:44:00,74.7,74.7,30.02,ESE,114,2.5,40.1,100,16.89,,,0.72,VWS V13.01,2013-07-01 16:44:00,
2013-07-01 12:49:00,74.8,74.8,30.02,South,169,0.0,40.1,100,16.89,,,0.72,VWS V13.01,2013-07-01 16:49:00,
2013-07-01 12:54:00,75.2,75.2,30.02,East,94,0.7,40.1,100,16.89,,,0.72,VWS V13.01,2013-07-01 16:54:00,
2013-07-01 12:59:00,75.3,75.3,30.02,ENE,68,0.0,40.1,100,16.89,,,0.72,VWS V13.01,2013-07-01 16:59:00,
2013-07-01 14:03:00,74.3,74.3,30.02,South,177,0.0,40.1,100,16.94,,,0.77,VWS V13.01,2013-07-01 18:03:00,
2013-07-01 14:08:00,74.4,74.4,30.02,South,177,0.0,40.1,100,16.94,,,0.77,VWS V13.01,2013-07-01 18:08:00,
2013-07-01 14:13:00,74.6,74.6,30.02,South,177,0.0,40.1,100,16.94,,,0.77,VWS V13.01,2013-07-01 18:13:00,
2013-07-01 14:18:00,75.0,75.0,30.02,South,177,0.0,40.1,100,16.94,,,0.77,VWS V13.01,2013-07-01 18:18:00,
2013-07-01 14:23:00,74.6,74.6,30.02,SE,132,0.0,40.1,100,16.94,,,0.77,VWS V13.01,2013-07-01 18:23:00,
2013-07-01 14:28:00,74.4,74.4,30.02,SE,132,0.0,40.1,100,16.94,,,0.77,VWS V13.01,2013-07-01 18:28:00,
2013-07-01 14:33:00,74.6,74.6,30.02,SSW,207,0.0,40.1,100,16.94,,,0.77,VWS V13.01,2013-07-01 18:33:00,
2013-07-01 14:38:00,74.8,74.8,30.02,SSW,207,0.0,40.1,100,16.94,,,0.77,VWS V13.01,2013-07-01 18:38:00,
2013-07-01 14:43:00,75.0,75.0,30.03,SE,142,4.7,40.1,100,16.94,,,0.77,VWS V13.01,2013-07-01 18:43:00,
2013-07-01 14:48:00,74.6,74.6,30.03,SSW,198,0.0,40.1,100,16.94,,,0.77,VWS V13.01,2013-07-01 18:48:00,
2013-07-01 14:53:00,74.1,74.1,30.03,ESE,121,0.3,40.1,100,16.94,,,0.77,VWS V13.01,2013-07-01 18:53:00,
2013-07-01 14:58:00,73.9,73.9,30.02,SE,146,1.1,40.1,100,16.94,,,0.77,VWS V13.01,2013-07-01 18:58:00,
2013-07-01 15:03:00,73.8,73.8,30.02,ESE,115,0.0,40.1,100,16.95,,,0.78,VWS V13.01,2013-07-01 19:03:00,
2013-07-01 15:08:00,73.9,73.9,30.02,East,80,0.0,40.1,100,16.96,,,0.79,VWS V13.01,2013-07-01 19:08:00,
2013-07-01 15:13:00,74.0,74.0,30.02,NNW,336,0.7,40.1,100,16.96,,,0.79,VWS V13.01,2013-07-01 19:13:00,
2013-07-01 15:18:00,74.1,74.1,30.02,SE,132,3.0,40.1,100,16.96,,,0.79,VWS V13.01,2013-07-01 19:18:00,
2013-07-01 15:23:00,74.0,74.0,30.01,SW,229,0.0,40.1,100,16.96,,,0.79,VWS V13.01,2013-07-01 19:23:00,
2013-07-01 15:28:00,74.0,74.0,30.01,ESE,120,2.4,40.1,100,16.96,,,0.79,VWS V13.01,2013-07-01 19:28:00,
2013-07-01 15:33:00,74.4,74.4,30.01,WSW,240,0.0,40.1,100,16.96,,,0.79,VWS V13.01,2013-07-01 19:33:00,
2013-07-01 15:38:00,74.2,74.2,30.01,WNW,291,1.1,40.1,100,16.96,,,0.79,VWS V13.01,2013-07-01 19:38:00,
2013-07-01 15:43:00,74.3,74.3,30.01,SW,228,0.0,40.1,100,16.96,,,0.79,VWS V13.01,2013-07-01 19:43:00,
2013-07-01 15:48:00,74.4,74.4,30.01,West,264,0.0,40.1,100,16.96,,,0.79,VWS V13.01,2013-07-01 19:48:00,
2013-07-01 15:53:00,74.4,74.4,30.01,ENE,60,0.2,40.1,100,16.96,,,0.79,VWS V13.01,2013-07-01 19:53:00,
2013-07-01 15:58:00,74.3,74.3,30.01,SW,232,2.2,40.1,100,16.96,,,0.79,VWS V13.01,2013-07-01 19:58:00,
2013-07-01 16:03:00,74.4,74.4,30.01,SSW,210,4.6,40.1,100,16.96,,,0.79,VWS V13.01,2013-07-01 20:03:00,
2013-07-01 16:08:00,74.1,74.1,30.01,South,174,0.9,40.1,100,16.96,,,0.79,VWS V13.01,2013-07-01 20:08:00,
2013-07-01 16:13:00,74.2,74.2,30.01,West,276,1.3,40.1,100,16.96,,,0.79,VWS V13.01,2013-07-01 20:13:00,
2013-07-01 16:18:00,73.9,73.9,30.02,SW,214,3.3,40.1,100,16.96,,,0.79,VWS V13.01,2013-07-01 20:18:00,
2013-07-01 16:23:00,73.8,73.8,30.02,WNW,294,5.2,40.1,100,16.96,,,0.79,VWS V13.01,2013-07-01 20:23:00,
2013-07-01 16:28:00,73.9,73.9,30.02,WSW,248,2.6,40.1,100,16.96,,,0.79,VWS V13.01,2013-07-01 20:28:00,
2013-07-01 16:33:00,73.6,73.6,30.02,SW,235,3.5,40.1,100,16.97,,,0.80,VWS V13.01,2013-07-01 20:33:00,
2013-07-01 16:38:00,73.2,73.2,30.02,West,271,4.3,40.1,100,16.97,,,0.80,VWS V13.01,2013-07-01 20:38:00,
2013-07-01 16:43:00,73.4,73.4,30.02,ESE,121,2.0,40.1,100,16.97,,,0.80,VWS V13.01,2013-07-01 20:43:00,
2013-07-01 16:48:00,73.3,73.3,30.02,SW,222,1.2,40.1,100,16.97,,,0.80,VWS V13.01,2013-07-01 20:48:00,
2013-07-01 16:53:00,73.4,73.4,30.02,ESE,114,1.3,40.1,100,16.97,,,0.80,VWS V13.01,2013-07-01 20:53:00,
2013-07-01 16:58:00,73.3,73.3,30.02,SE,139,2.2,40.1,100,16.97,,,0.80,VWS V13.01,2013-07-01 20:58:00,
2013-07-01 17:03:00,73.4,73.4,30.02,West,273,0.0,40.1,100,16.97,,,0.80,VWS V13.01,2013-07-01 21:03:00,
2013-07-01 17:08:00,73.6,73.6,30.02,SSW,194,0.7,40.1,100,16.97,,,0.80,VWS V13.01,2013-07-01 21:08:00,
2013-07-01 17:13:00,73.5,73.5,30.02,SW,233,0.2,40.1,100,16.97,,,0.80,VWS V13.01,2013-07-01 21:13:00,
2013-07-01 17:18:00,73.6,73.6,30.02,South,176,1.1,40.1,100,16.97,,,0.80,VWS V13.01,2013-07-01 21:18:00,
2013-07-01 17:23:00,73.3,73.3,30.03,SE,129,0.0,40.1,100,16.97,,,0.80,VWS V13.01,2013-07-01 21:23:00,
2013-07-01 17:28:00,73.1,73.1,30.03,West,269,0.0,40.1,100,16.97,,,0.80,VWS V13.01,2013-07-01 21:28:00,
2013-07-01 17:33:00,73.3,73.3,30.02,West,269,0.0,40.1,100,16.97,,,0.80,VWS V13.01,2013-07-01 21:33:00,
2013-07-01 17:38:00,73.3,73.3,30.02,WSW,253,0.0,40.1,100,16.97,,,0.80,VWS V13.01,2013-07-01 21:38:00,
2013-07-01 17:43:00,73.4,73.4,30.02,South,188,1.4,40.1,100,16.97,,,0.80,VWS V13.01,2013-07-01 21:43:00,
2013-07-01 17:48:00,73.7,73.7,30.02,SE,129,0.0,40.1,100,16.97,,,0.80,VWS V13.01,2013-07-01 21:48:00,
2013-07-01 17:53:00,73.9,73.9,30.02,SE,129,0.0,40.1,100,16.97,,,0.80,VWS V13.01,2013-07-01 21:53:00,
2013-07-01 17:58:00,73.9,73.9,30.02,East,98,0.0,40.1,100,16.97,,,0.80,VWS V13.01,2013-07-01 21:58:00,
2013-07-01 18:03:00,74.2,74.2,30.02,SSW,207,0.0,40.1,100,16.97,,,0.80,VWS V13.01,2013-07-01 22:03:00,
2013-07-01 18:08:00,74.1,74.1,30.02,SE,139,0.0,40.1,100,16.97,,,0.80,VWS V13.01,2013-07-01 22:08:00,
2013-07-01 18:12:00,74.2,74.2,30.02,ESE,112,0.0,40.1,100,16.97,,,0.80,VWS V13.01,2013-07-01 22:12:00,
2013-07-01 18:17:00,74.3,74.3,30.02,WSW,243,0.0,40.1,100,16.97,,,0.80,VWS V13.01,2013-07-01 22:17:00,
2013-07-01 18:22:00,74.4,74.4,30.02,WSW,243,0.0,40.1,100,16.97,,,0.80,VWS V13.01,2013-07-01 22:22:00,
2013-07-01 18:27:00,74.6,74.6,30.03,WSW,249,0.0,40.1,100,16.97,,,0.80,VWS V13.01,2013-07-01 22:27:00,
2013-07-01 18:32:00,74.8,74.8,30.03,WSW,249,0.0,40.1,100,16.97,,,0.80,VWS V13.01,2013-07-01 22:32:00,
2013-07-01 18:37:00,74.7,74.7,30.03,South,174,0.0,40.1,100,16.97,,,0.80,VWS V13.01,2013-07-01 22:37:00,
2013-07-01 18:42:00,75.0,75.0,30.04,SSW,202,0.0,40.1,100,16.97,,,0.80,VWS V13.01,2013-07-01 22:42:00,
2013-07-01 18:47:00,75.1,75.1,30.04,SSE,156,0.0,40.1,100,16.97,,,0.80,VWS V13.01,2013-07-01 22:47:00,
2013-07-01 18:52:00,74.8,74.8,30.04,SW,224,3.4,40.1,100,16.97,,,0.80,VWS V13.01,2013-07-01 22:52:00,
2013-07-01 18:57:00,74.7,74.7,30.04,SW,228,6.0,40.1,100,16.97,,,0.80,VWS V13.01,2013-07-01 22:57:00,
2013-07-01 19:02:00,74.8,74.8,30.04,West,280,1.3,40.1,100,16.97,,,0.80,VWS V13.01,2013-07-01 23:02:00,
2013-07-01 19:07:00,74.8,74.8,30.05,SW,231,2.5,40.1,100,16.97,,,0.80,VWS V13.01,2013-07-01 23:07:00,
2013-07-01 19:12:00,74.9,74.9,30.05,WSW,248,0.0,40.1,100,16.97,,,0.80,VWS V13.01,2013-07-01 23:12:00,
2013-07-01 19:17:00,74.8,74.8,30.05,NE,46,0.0,40.1,100,16.97,,,0.80,VWS V13.01,2013-07-01 23:17:00,
2013-07-01 19:22:00,74.7,74.7,30.05,SSE,156,0.0,40.1,100,16.97,,,0.80,VWS V13.01,2013-07-01 23:22:00,
2013-07-01 19:27:00,74.5,74.5,30.05,WSW,253,0.0,40.1,100,16.97,,,0.80,VWS V13.01,2013-07-01 23:27:00,
2013-07-01 19:32:00,74.4,74.4,30.05,SSE,158,0.0,40.1,100,16.97,,,0.80,VWS V13.01,2013-07-01 23:32:00,
2013-07-01 19:37:00,74.1,74.1,30.05,SE,138,0.0,40.1,100,16.97,,,0.80,VWS V13.01,2013-07-01 23:37:00,
2013-07-01 19:42:00,74.2,74.2,30.05,WSW,245,5.0,40.1,100,16.97,,,0.80,VWS V13.01,2013-07-01 23:42:00,
2013-07-01 19:47:00,74.0,74.0,30.05,SW,229,1.4,40.1,100,16.97,,,0.80,VWS V13.01,2013-07-01 23:47:00,
2013-07-01 19:52:00,73.9,73.9,30.06,SE,136,0.9,40.1,100,16.97,,,0.80,VWS V13.01,2013-07-01 23:52:00,
2013-07-01 19:57:00,74.1,74.1,30.06,SSW,211,0.0,40.1,100,16.97,,,0.80,VWS V13.01,2013-07-01 23:57:00,
2013-07-01 20:02:00,74.1,74.1,30.06,South,187,1.9,40.1,100,16.97,,,0.80,VWS V13.01,2013-07-02 00:02:00,
2013-07-01 20:07:00,74.1,74.1,30.06,SW,235,0.0,40.1,100,16.97,,,0.80,VWS V13.01,2013-07-02 00:07:00,
2013-07-01 20:12:00,74.0,74.0,30.06,WSW,245,0.0,40.1,100,16.97,,,0.80,VWS V13.01,2013-07-02 00:12:00,
2013-07-01 20:17:00,74.2,74.2,30.06,WSW,245,0.0,40.1,100,16.97,,,0.80,VWS V13.01,2013-07-02 00:17:00,
2013-07-01 20:22:00,74.0,74.0,30.06,SSE,149,0.0,40.1,100,16.97,,,0.80,VWS V13.01,2013-07-02 00:22:00,
2013-07-01 20:27:00,74.2,74.2,30.06,South,172,0.0,40.1,100,16.97,,,0.80,VWS V13.01,2013-07-02 00:27:00,
2013-07-01 20:32:00,74.3,74.3,30.06,South,172,0.0,40.1,100,16.97,,,0.80,VWS V13.01,2013-07-02 00:32:00,
2013-07-01 20:37:00,73.9,73.9,30.06,East,86,0.0,40.1,100,16.97,,,0.80,VWS V13.01,2013-07-02 00:37:00,
2013-07-01 20:42:00,73.9,73.9,30.05,WSW,240,3.9,40.1,100,16.97,,,0.80,VWS V13.01,2013-07-02 00:42:00,
2013-07-01 20:47:00,73.8,73.8,30.06,WSW,239,1.2,40.1,100,16.97,,,0.80,VWS V13.01,2013-07-02 00:47:00,
2013-07-01 20:52:00,73.6,73.6,30.06,WSW,239,0.0,40.1,100,16.97,,,0.80,VWS V13.01,2013-07-02 00:52:00,
2013-07-01 20:57:00,73.5,73.5,30.06,East,80,0.9,40.1,100,16.97,,,0.80,VWS V13.01,2013-07-02 00:57:00,
2013-07-01 21:02:00,73.4,73.4,30.06,ESE,120,0.0,40.1,100,16.97,,,0.80,VWS V13.01,2013-07-02 01:02:00,
2013-07-01 21:07:00,73.2,73.2,30.06,ESE,120,0.0,40.1,100,16.97,,,0.80,VWS V13.01,2013-07-02 01:07:00,
2013-07-01 21:12:00,73.0,73.0,30.07,SSW,211,0.0,40.1,100,16.97,,,0.80,VWS V13.01,2013-07-02 01:12:00,
2013-07-01 21:17:00,72.7,72.7,30.07,SE,142,3.0,40.1,100,16.97,,,0.80,VWS V13.01,2013-07-02 01:17:00,
2013-07-01 21:22:00,72.8,72.8,30.07,South,179,1.4,40.1,100,16.97,,,0.80,VWS V13.01,2013-07-02 01:22:00,
2013-07-01 21:27:00,72.5,72.5,30.07,East,96,0.0,40.1,100,16.97,,,0.80,VWS V13.01,2013-07-02 01:27:00,
2013-07-01 21:32:00,72.5,72.5,30.07,SSW,200,1.1,40.1,100,16.97,,,0.80,VWS V13.01,2013-07-02 01:32:00,
2013-07-01 21:37:00,72.3,72.3,30.07,WSW,253,0.0,40.1,100,16.97,,,0.80,VWS V13.01,2013-07-02 01:37:00,
2013-07-01 21:42:00,72.2,72.2,30.07,SW,221,0.0,40.1,100,16.97,,,0.80,VWS V13.01,2013-07-02 01:42:00,
2013-07-01 21:47:00,72.4,72.4,30.08,SW,221,0.0,40.1,100,16.97,,,0.80,VWS V13.01,2013-07-02 01:47:00,
2013-07-01 21:52:00,72.0,72.0,30.08,East,91,0.0,40.1,100,16.97,,,0.80,VWS V13.01,2013-07-02 01:52:00,
2013-07-01 21:57:00,72.3,72.3,30.08,SE,134,0.0,40.1,100,16.97,,,0.80,VWS V13.01,2013-07-02 01:57:00,
2013-07-01 22:02:00,72.3,72.3,30.08,SE,134,0.0,40.1,100,16.97,,,0.80,VWS V13.01,2013-07-02 02:02:00,
2013-07-01 22:07:00,72.1,72.1,30.08,SE,134,0.0,40.1,100,16.97,,,0.80,VWS V13.01,2013-07-02 02:07:00,
2013-07-01 22:12:00,71.8,71.8,30.08,SE,134,0.0,40.1,100,16.97,,,0.80,VWS V13.01,2013-07-02 02:12:00,
2013-07-01 22:17:00,71.6,71.6,30.08,SSW,205,0.0,40.1,100,16.97,,,0.80,VWS V13.01,2013-07-02 02:17:00,
2013-07-01 22:22:00,71.5,71.5,30.08,SSW,205,0.0,40.1,100,16.97,,,0.80,VWS V13.01,2013-07-02 02:22:00,
2013-07-01 22:27:00,71.6,71.6,30.08,SW,232,0.0,40.1,100,16.97,,,0.80,VWS V13.01,2013-07-02 02:27:00,
2013-07-01 22:32:00,71.5,71.5,30.08,SW,232,0.0,40.1,100,16.97,,,0.80,VWS V13.01,2013-07-02 02:32:00,
2013-07-01 22:37:00,71.6,71.6,30.08,SW,232,0.0,40.1,100,16.97,,,0.80,VWS V13.01,2013-07-02 02:37:00,
2013-07-01 22:42:00,71.6,71.6,30.09,SW,232,0.0,40.1,100,16.97,,,0.80,VWS V13.01,2013-07-02 02:42:00,
2013-07-01 22:47:00,71.7,71.7,30.09,SSW,201,0.0,40.1,100,16.97,,,0.80,VWS V13.01,2013-07-02 02:47:00,
2013-07-01 22:52:00,71.4,71.4,30.09,South,191,0.0,40.1,100,16.97,,,0.80,VWS V13.01,2013-07-02 02:52:00,
2013-07-01 22:57:00,71.8,71.8,30.09,South,191,0.0,40.1,100,16.97,,,0.80,VWS V13.01,2013-07-02 02:57:00,
2013-07-01 23:02:00,71.3,71.3,30.09,South,191,0.0,40.1,100,16.97,,,0.80,VWS V13.01,2013-07-02 03:02:00,
2013-07-01 23:07:00,71.5,71.5,30.09,South,191,0.0,40.1,100,16.97,,,0.80,VWS V13.01,2013-07-02 03:07:00,
2013-07-01 23:12:00,71.6,71.6,30.09,South,191,0.0,40.1,100,16.97,,,0.80,VWS V13.01,2013-07-02 03:12:00,
2013-07-01 23:17:00,71.8,71.8,30.08,South,191,0.0,40.1,100,16.97,,,0.80,VWS V13.01,2013-07-02 03:17:00,
2013-07-01 23:22:00,71.7,71.7,30.09,South,191,0.0,40.1,100,16.97,,,0.80,VWS V13.01,2013-07-02 03:22:00,
2013-07-01 23:27:00,71.6,71.6,30.09,South,191,0.0,40.1,100,16.97,,,0.80,VWS V13.01,2013-07-02 03:27:00,
2013-07-01 23:32:00,71.7,71.7,30.08,South,191,0.0,40.1,100,16.97,,,0.80,VWS V13.01,2013-07-02 03:32:00,
2013-07-01 23:37:00,71.8,71.8,30.08,South,191,0.0,40.1,100,16.97,,,0.80,VWS V13.01,2013-07-02 03:37:00,
2013-07-01 23:42:00,71.8,71.8,30.09,South,191,0.0,40.1,100,16.97,,,0.80,VWS V13.01,2013-07-02 03:42:00,
2013-07-01 23:47:00,71.6,71.6,30.09,WNW,297,1.6,40.1,100,16.97,,,0.80,VWS V13.01,2013-07-02 03:47:00,
2013-07-01 23:52:00,72.1,72.1,30.09,SW,222,1.1,40.1,100,16.97,,,0.80,VWS V13.01,2013-07-02 03:52:00,
2013-07-01 23:57:00,72.3,72.3,30.09,SSW,202,0.0,40.1,100,16.97,,,0.80,VWS V13.01,2013-07-02 03:57:00,